STARLINK-36883

Last updated on Fri Mar 27 2026 00:02:06 GMT+0000 (Coordinated Universal Time)

1 67975U 26038Q 26085.50002314 -.02185345 00000+0 -57392-1 0 9995 2 67975 97.2845 96.4101 0001551 82.9779 67.8623 15.42425587 5905

Satellite not in orbit